{"data":{"norad_id":56689,"intl_designator":"2023-067B","name":"STARLINK-30129","alt_names":[],"object_type":"PAYLOAD","status":"ACTIVE","operator":null,"country":"US","launch_date":"2023-05-19","launch_site_code":"AFETR","launch_vehicle":null,"mission":null,"orbit_class":"UNKNOWN","rcs_meters":null,"size_class":null,"mass_kg":null,"dimensions":null,"purposes":["comms"],"wikipedia_slug":null,"has_3d_model":false,"image_url":null,"decayed_at":null,"tle_current":{"epoch":"2026-05-24T21:13:56.773632Z","epoch_age_seconds":85300,"freshness":"FRESH","line1":"1 56689U 23067B   26144.88468488  .00001082  00000+0  50008-4 0  9990","line2":"2 56689  43.0001 210.8927 0001263 276.4239  83.6469 15.26745947167233","mean_motion":15.26745947,"eccentricity":0.0001263,"inclination_deg":43.0001,"raan_deg":210.8927,"arg_perigee_deg":276.4239,"mean_anomaly_deg":83.6469,"bstar":5.0008e-5,"rev_number":16723,"period_min":94.318246125333,"perigee_km":484.68080428053,"apogee_km":486.41457103264,"semimajor_km":6863.6846876566,"source":"CELESTRAK","updated_at":"2026-05-25T13:38:18.119150Z"}}}